Location: Unspecified
(64.9000°N, 0.0000°E)
Time: 10:06:10
(UTC+00:00)

Transit 2A Rocket - Pass Details

Date: 19 June 2019
Orbit: 588 x 915 km, 66.7° (Epoch: 18 July)

Event Time Altitude Azimuth Distance (km) Brightness Sun altitude
Rises 19:30:45 0° 306° (NW) 3,412 10.4 12.2°
Reaches altitude 10° 19:33:41 10° 294° (WNW) 2,421 10.5 12.0°
Maximum altitude 19:38:06 25° 242° (WSW) 1,528 7.1 11.6°
Drops below altitude 10° 19:42:13 10° 188° (S) 2,232 7.2 11.2°
Sets 19:44:49 0° 175° (S) 3,091 7.8 11.0°
